Regional Weather Roundup
Issued by NWS

Home | Current Version | Previous Version | Graphics & Text | Print | Product List | Glossary On
Versions: 1 2 3 4 5 6 7 8 9 10 11 12 13 14 15 16 17 18 19 20 21 22 23 24 25 26 27 28 29 30 31 32 33 34 35 36 37 38 39 40 41 42 43 44 45 46 47 48 49 50
000
ASUS43 KOAX 191110
RWRNE

WEATHER ROUNDUP FOR NEBRASKA
NATIONAL WEATHER SERVICE OMAHA NE
600 AM CDT SAT AUG 19 2017

NOTES: SATELLITE DATA IS BEING USED TO AUGMENT CLOUD COVER ABOVE
       12000 FEET.
       "FAIR" INDICATES FEW OR NO CLOUDS BELOW 12,000 FEET WITH NO
       SIGNIFICANT WEATHER AND/OR OBSTRUCTIONS TO VISIBILITY.


NEZ001>004-019>022-054>056-191200-
NEBRASKA PANHANDLE

CITY           SKY/WX    TMP DP  RH WIND       PRES   REMARKS
SCOTTSBLUFF    CLEAR     60  51  72 CALM      29.98F
ALLIANCE       CLEAR     57  50  77 SE3       29.99S
CHADRON        CLEAR     64  48  56 VRB3      29.92S
GORDON         FAIR      61  52  73 S5        29.96S
KIMBALL        CLEAR     63  55  75 S12       30.05F
SIDNEY         CLEAR     64  55  72 S15       30.03F
$$

NEZ057>060-069>072-079>082-191200-
SOUTHWEST NEBRASKA

CITY           SKY/WX    TMP DP  RH WIND       PRES   REMARKS
NORTH PLATTE   CLEAR     56  55  97 E3        30.01S
IMPERIAL       CLEAR     57  52  83 S6        30.02F
LEXINGTON      CLEAR     60  58  94 SE3       30.00S
MCCOOK         CLEAR     56  54  93 CALM      30.01R
OGALLALA       CLEAR     63  56  79 W7        30.01F
$$

NEZ005>010-023>029-035>040-094-191200-
NORTH CENTRAL NEBRASKA

CITY           SKY/WX    TMP DP  RH WIND       PRES   REMARKS
VALENTINE      CLEAR     63  55  75 S8        29.96F
AINSWORTH      CLEAR     60  57  88 S9        29.97F
BROKEN BOW     CLEAR     56  54  93 CALM      29.99F
O`NEILL        CLEAR     57  57 100 S3        29.98S
ORD            CLEAR     56  54  93 S3        29.98S
THEDFORD       CLEAR     62  56  82 S6        30.00S
$$

NEZ041-046>049-061>064-073>077-083>087-191200-
SOUTH CENTRAL NEBRASKA

CITY           SKY/WX    TMP DP  RH WIND       PRES   REMARKS
GRAND ISLAND   CLEAR     59  59 100 CALM      30.00S
AURORA         CLEAR     58  57  99 CALM      29.99F
HASTINGS       CLEAR     64  58  80 CALM      30.01R
HEBRON         CLEAR     61  60  97 CALM      29.99R
HOLDREGE       CLEAR     57  55  91 SE6       30.00F
KEARNEY        CLEAR     61  58  90 CALM      30.01S
YORK           CLEAR     59  59 100 CALM      29.99S
$$

NEZ011>018-030>034-042>045-191200-
NORTHEAST NEBRASKA

CITY           SKY/WX    TMP DP  RH WIND       PRES   REMARKS
NORFOLK        CLEAR     54  54 100 CALM      29.97F
ALBION         CLEAR     56  55  97 CALM      29.99S
BLAIR          CLEAR     60  57  92 NW3       29.97R
COLUMBUS       CLEAR     55  54  96 CALM      29.98S FOG
FREMONT        CLEAR     59  58  97 N3        29.97S
TEKAMAH        CLEAR     56  54  93 W5        29.96R
WAYNE          CLEAR     52  50  92 CALM      29.97S
$$

NEZ050>053-065>068-078-088>093-191200-
SOUTHEAST NEBRASKA

CITY           SKY/WX    TMP DP  RH WIND       PRES   REMARKS
LINCOLN        CLEAR     60  58  92 N3        29.97S
OMAHA EPPLEY   CLEAR     60  56  86 N3        29.96R
BEATRICE       CLEAR     61  60  97 CALM      29.97S
FALLS CITY     CLEAR     63  61  93 NW5       29.94S
NEBRASKA CITY  CLEAR     65  65 100 NW3       29.96S
PLATTSMOUTH    CLEAR     61  58  91 CALM      29.97S
$$

NEZ044-045-051>053-067-191200-
OMAHA AREA

CITY           SKY/WX    TMP DP  RH WIND       PRES   REMARKS
OMAHA EPPLEY   CLEAR     60  56  86 N3        29.96R
BLAIR          CLEAR     60  57  92 NW3       29.97R
FREMONT        CLEAR     59  58  97 N3        29.97S
MILLARD        CLEAR     62  60  94 CALM      29.96S
OFFUTT AFB     CLEAR     55  53  96 CALM      29.95R
PLATTSMOUTH    CLEAR     61  58  91 CALM      29.97S
WAHOO          FAIR      59  58  97 CALM      29.97R
$$




USA.gov is the U.S. government's official web portal to all federal, state and local government web resources and services.